Terminal Aerodrome Forecast
Issued by NWS Charleston, WV

Current Version | Previous Version | Text Only | Print | Product List | Glossary Off
Versions: 1 2 3 4 5 6 7 8 9 10 11 12 13 14 15 16 17 18 19 20 21 22 23 24 25 26 27 28 29 30 31

000
FTUS41 KRLX 190300 AAB
TAFCRW
TAF AMD
KCRW 190358Z 1904/1924 32005KT 6SM -RA BKN021 BKN035 OVC060
     FM190500 31007KT 4SM BR OVC010
     FM191200 30004KT 4SM BR SCT010
     FM192000 27004KT P6SM FEW025=

USA.gov is the U.S. government's official web portal to all federal, state and local government web resources and services.